Willimantic, CT

5:31 AM EDT on October 15, 2019 (GMT -0400)
Windham

Weather History for KIJD - September, 2019

Change the Weather History Date:

Thursday, September 19, 2019

  Actual Average Record
Temperature  
Mean Temperature 52 °F -  
Max Temperature 70 °F 72 °F 85 °F (1955)
Min Temperature 37 °F 48 °F 27 °F (1959)
Degree Days  
Heating Degree Days 12    
Growing Degree Days 2 (Base 50)    
Moisture  
Dew Point 40 °F    
Average Humidity 84    
Maximum Humidity 100    
Minimum Humidity 35    
Precipitation  
Precipitation 0.00 in - - ()
Sea Level Pressure  
Sea Level Pressure 30.34 in    
Wind  
Wind Speed 1 mph ()    
Max Wind Speed 5 mph    
Max Gust Speed -    
Visibility 7.1 miles    
Events Fog    
Averages and records for this station are not official NWS values.
T = Trace of Precipitation, MM = Missing Value Source: Averaged Metar Reports

Daily Weather History Graph

Daily Weather History Graph

Search for Another Location

Airport or City:

Astronomy

Sep. 19, 2019 Rise Set
Actual Time 6:32 AM EDT 6:51 PM EDT
Civil Twilight 6:04 AM EDT 7:19 PM EDT
Nautical Twilight 5:32 AM EDT 7:52 PM EDT
Astronomical Twilight 4:58 AM EDT 8:25 PM EDT
Moon 9:54 PM EDT (9/19) 11:37 AM EDT (9/19)
Length of Visible Light 13h 14m
Length of Day
12h 18m
Waning Gibbous, 74% of the Moon is Illuminated
Sep 19
Waning Gibbous
Sep 21
Last Quarter
Sep 28
New
Oct 5
First Quarter
Oct 13
Full

Hourly Weather History & Observations

Time (EDT) Temp. Windchill Dew Point Humidity Pressure Visibility Wind Dir Wind Speed Gust Speed Precip Events Conditions
12:52 AM 42.1 °F 40.2 °F 39.9 °F 92% 30.36 in 10.0 mi North 3.5 mph - N/A   Clear
1:52 AM 42.1 °F - 39.9 °F 92% 30.35 in 10.0 mi Calm Calm - N/A   Clear
2:52 AM 41.0 °F - 39.0 °F 93% 30.35 in 10.0 mi Calm Calm - N/A   Clear
2:59 AM 41.0 °F 38.0 °F 39.0 °F 93% 30.35 in 10.0 mi NNW 4.6 mph - N/A   Partly Cloudy
3:52 AM 39.9 °F 37.8 °F 37.9 °F 93% 30.35 in 10.0 mi NNW 3.5 mph - N/A   Scattered Clouds
4:00 AM 39.9 °F 37.8 °F 37.9 °F 93% 30.35 in 10.0 mi NNW 3.5 mph - N/A   Mostly Cloudy
4:22 AM 39.0 °F - 37.0 °F 93% 30.35 in 10.0 mi Calm Calm - N/A   Scattered Clouds
4:52 AM 39.0 °F - 37.0 °F 93% 30.35 in 10.0 mi Calm Calm - N/A   Partly Cloudy
5:34 AM 39.0 °F - 37.0 °F 93% 30.35 in 10.0 mi Calm Calm - N/A   Mostly Cloudy
5:52 AM 37.9 °F - 37.0 °F 97% 30.35 in 10.0 mi Calm Calm - N/A   Overcast
5:56 AM 37.9 °F - 37.0 °F 97% 30.35 in 1.5 mi Calm Calm - N/A   Overcast
6:05 AM 37.9 °F - 37.0 °F 97% 30.35 in 0.5 mi Calm Calm - N/A Fog Fog
6:15 AM 37.9 °F - 37.0 °F 97% 30.35 in 2.5 mi Calm Calm - N/A   Mostly Cloudy
6:22 AM 37.9 °F - 37.0 °F 97% 30.36 in 9.0 mi Calm Calm - N/A   Mostly Cloudy
6:35 AM 37.0 °F - 36.0 °F 96% 30.36 in 1.2 mi Calm Calm - N/A   Mostly Cloudy
6:38 AM 37.0 °F - 36.0 °F 96% 30.36 in 0.2 mi Calm Calm - N/A Fog Fog
6:52 AM 37.0 °F - 36.0 °F 96% 30.37 in 0.2 mi Calm Calm - N/A Fog Fog
7:06 AM 37.0 °F - 37.0 °F 100% 30.36 in 1.0 mi Calm Calm - N/A   Overcast
7:09 AM 37.9 °F - 37.0 °F 97% 30.36 in 4.0 mi Calm Calm - N/A   Overcast
7:23 AM 37.9 °F - 37.0 °F 97% 30.37 in 10.0 mi Calm Calm - N/A   Scattered Clouds
7:27 AM 37.9 °F - 37.0 °F 97% 30.37 in 1.0 mi Calm Calm - N/A   Mist
7:29 AM 39.0 °F - 37.9 °F 96% 30.37 in 0.2 mi Calm Calm - N/A Fog Fog
7:48 AM 39.2 °F - 39.2 °F 100% 30.37 in 0.2 mi Calm Calm - N/A Fog Fog
7:52 AM 39.9 °F - 39.9 °F 100% 30.38 in 0.2 mi Calm Calm - N/A Fog Fog
8:09 AM 41.0 °F - 41.0 °F 100% 30.37 in 1.0 mi North - - N/A   Overcast
8:13 AM 42.1 °F - 41.0 °F 96% 30.37 in 4.0 mi Calm Calm - N/A   Mostly Cloudy
8:27 AM 44.1 °F - 43.0 °F 96% 30.38 in 10.0 mi Calm Calm - N/A   Scattered Clouds
8:52 AM 48.9 °F - 43.0 °F 80% 30.38 in 10.0 mi NNW 3.5 mph - N/A   Clear
9:52 AM 55.9 °F - 46.0 °F 69% 30.38 in 10.0 mi Calm Calm - N/A   Clear
10:52 AM 60.1 °F - 43.0 °F 53% 30.37 in 10.0 mi East 4.6 mph - N/A   Clear
11:52 AM 63.0 °F - 42.1 °F 46% 30.36 in 10.0 mi ENE 3.5 mph - N/A   Clear
12:52 PM 66.0 °F - 39.0 °F 37% 30.35 in 10.0 mi NNE 4.6 mph - N/A   Clear
1:52 PM 68.0 °F - 41.0 °F 37% 30.34 in 10.0 mi NE 4.6 mph - N/A   Clear
2:52 PM 68.0 °F - 39.0 °F 35% 30.32 in 10.0 mi Calm Calm - N/A   Clear
3:52 PM 68.0 °F - 39.0 °F 35% 30.30 in 10.0 mi Calm Calm - N/A   Clear
4:52 PM 68.0 °F - 39.9 °F 36% 30.29 in 10.0 mi Calm Calm - N/A   Clear
5:52 PM 66.9 °F - 42.1 °F 40% 30.31 in 10.0 mi WNW 3.5 mph - N/A   Clear
6:52 PM 60.1 °F - 48.9 °F 67% 30.30 in 10.0 mi Calm Calm - N/A   Clear
7:52 PM 53.1 °F - 48.0 °F 83% 30.31 in 10.0 mi Calm Calm - N/A   Clear
8:52 PM 51.1 °F - 48.0 °F 89% 30.29 in 10.0 mi NNE 3.5 mph - N/A   Clear
9:52 PM 50.0 °F - 48.0 °F 93% 30.28 in 10.0 mi Calm Calm - N/A   Clear
10:52 PM 46.9 °F - 45.0 °F 93% 30.28 in 10.0 mi NE 3.5 mph - N/A   Clear
11:40 PM 46.9 °F - 46.0 °F 97% 30.28 in 5.0 mi Calm Calm - N/A   Mostly Cloudy
11:52 PM 46.9 °F - 45.0 °F 93% 30.28 in 10.0 mi Calm Calm - N/A   Mostly Cloudy
11:59 PM 46.9 °F - 45.0 °F 93% 30.28 in 10.0 mi Calm Calm - N/A   Scattered Clouds